When you browse on this site, cookies collect data to enhance your experience and personalize the content and advertising you see.
Visit our Privacy Policy to learn more. By continuing to use the site, you agree to this use of cookies and data.
  • In United Kingdom
  • List of Countries
  • For 7 days
  • Water Temperature
  • Weather Map
  • Weather Widgets
  • user-avatar
    Login

    Hourly Weather Maun

    Today, 22 February, Saturday

    Time Temperature Precipitation Wind Pressure Humidity
    00:00 +26°C° 0 mm 1 mps 680 mmHg 54%
    01:00 +25°C° 0 mm 1 mps 679 mmHg 58%
    02:00 +24°C° 0 mm 1 mps 679 mmHg 63%
    03:00 +24°C° 0 mm 1 mps 679 mmHg 63%
    04:00 +24°C° 0 mm 1 mps 679 mmHg 64%
    05:00 +24°C° 0 mm 1 mps 679 mmHg 65%
    06:00 +25°C° 0 mm 1 mps 680 mmHg 62%
    07:00 +26°C° 0 mm 1 mps 680 mmHg 59%
    08:00 +27°C° 0 mm 1 mps 681 mmHg 57%
    09:00 +30°C° 0 mm 1 mps 681 mmHg 49%
    10:00 +32°C° 0 mm 1 mps 682 mmHg 42%
    11:00 +35°C° 0 mm 1 mps 682 mmHg 35%
    12:00 +35°C° 0 mm 1 mps 681 mmHg 33%
    13:00 +35°C° 0 mm 1 mps 680 mmHg 32%
    14:00 +35°C° 0 mm 1 mps 679 mmHg 31%
    15:00 +35°C° 0 mm 1 mps 679 mmHg 33%
    16:00 +34°C° 0 mm 1 mps 678 mmHg 34%
    17:00 +34°C° 0 mm 1 mps 678 mmHg 36%
    18:00 +32°C° 0 mm 1 mps 678 mmHg 39%
    19:00 +31°C° 0 mm 2 mps 678 mmHg 42%
    20:00 +30°C° 0 mm 2 mps 678 mmHg 44%
    21:00 +29°C° 0 mm 2 mps 678 mmHg 48%
    22:00 +28°C° 0 mm 2 mps 679 mmHg 52%
    23:00 +27°C° 0 mm 1 mps 679 mmHg 55%

    Tomorrow, 23 February, Sunday

    Time Temperature Precipitation Wind Pressure Humidity
    00:00 +27°C° 0 mm 1 mps 679 mmHg 56%
    01:00 +27°C° 0 mm 1 mps 678 mmHg 56%
    02:00 +25°C° 0 mm 0 mps 678 mmHg 57%
    03:00 +25°C° 0 mm 0 mps 678 mmHg 57%
    04:00 +25°C° 0 mm 0 mps 678 mmHg 58%
    05:00 +26°C° 0 mm 1 mps 678 mmHg 58%
    06:00 +27°C° 0 mm 1 mps 678 mmHg 58%
    07:00 +27°C° 0 mm 1 mps 679 mmHg 57%
    08:00 +28°C° 0 mm 1 mps 679 mmHg 56%
    09:00 +30°C° 0 mm 1 mps 679 mmHg 51%
    10:00 +32°C° 0 mm 1 mps 680 mmHg 46%
    11:00 +34°C° 0 mm 1 mps 680 mmHg 40%
    12:00 +33°C° 0 mm 0 mps 679 mmHg 37%
    13:00 +34°C° 0 mm 0 mps 679 mmHg 35%
    14:00 +35°C° 0 mm 0 mps 678 mmHg 32%
    15:00 +35°C° 0.1 mm 1 mps 678 mmHg 36%
    16:00 +34°C° 0.1 mm 1 mps 677 mmHg 40%
    17:00 +33°C° 0.1 mm 1 mps 677 mmHg 43%
    18:00 +31°C° 0.1 mm 1 mps 677 mmHg 48%
    19:00 +30°C° 0.1 mm 1 mps 677 mmHg 53%
    20:00 +26°C° 0.1 mm 0 mps 677 mmHg 57%
    21:00 +27°C° 1.2 mm 1 mps 678 mmHg 66%
    22:00 +25°C° 1.2 mm 2 mps 678 mmHg 74%
    23:00 +24°C° 1.2 mm 3 mps 679 mmHg 82%

    Day after tomorrow, 24 February, Monday

    Time Temperature Precipitation Wind Pressure Humidity
    00:00 +24°C° 0.6 mm 3 mps 678 mmHg 84%
    01:00 +22°C° 0.6 mm 3 mps 678 mmHg 86%
    02:00 +22°C° 0.6 mm 4 mps 678 mmHg 88%
    03:00 +22°C° 0.2 mm 4 mps 678 mmHg 89%
    04:00 +22°C° 0.2 mm 4 mps 678 mmHg 90%
    05:00 +22°C° 0.2 mm 3 mps 678 mmHg 91%
    06:00 +22°C° 0.8 mm 5 mps 679 mmHg 88%
    07:00 +23°C° 0.8 mm 6 mps 680 mmHg 86%
    08:00 +23°C° 0.8 mm 7 mps 680 mmHg 83%
    09:00 +24°C° 0.6 mm 7 mps 680 mmHg 81%
    10:00 +24°C° 0.6 mm 7 mps 681 mmHg 80%
    11:00 +24°C° 0.6 mm 7 mps 681 mmHg 78%
    12:00 +26°C° 0.4 mm 7 mps 680 mmHg 74%
    13:00 +27°C° 0.4 mm 7 mps 680 mmHg 71%
    14:00 +27°C° 0.4 mm 7 mps 679 mmHg 67%
    15:00 +27°C° 0 mm 6 mps 679 mmHg 67%
    16:00 +27°C° 0 mm 6 mps 679 mmHg 67%
    17:00 +27°C° 0 mm 6 mps 679 mmHg 66%
    18:00 +26°C° 0 mm 6 mps 679 mmHg 68%
    19:00 +25°C° 0 mm 5 mps 680 mmHg 70%
    20:00 +25°C° 0 mm 5 mps 680 mmHg 72%
    21:00 +23°C° 0 mm 5 mps 681 mmHg 72%
    22:00 +23°C° 0 mm 5 mps 681 mmHg 73%
    23:00 +22°C° 0 mm 5 mps 681 mmHg 74%

    25 February, Tuesday

    Time Temperature Precipitation Wind Pressure Humidity
    00:00 +22°C° 0 mm 5 mps 681 mmHg 74%
    01:00 +21°C° 0 mm 5 mps 680 mmHg 75%
    02:00 +21°C° 0 mm 4 mps 680 mmHg 75%
    03:00 +21°C° 0 mm 4 mps 680 mmHg 75%
    04:00 +21°C° 0 mm 5 mps 680 mmHg 75%
    05:00 +21°C° 0 mm 5 mps 680 mmHg 74%
    06:00 +21°C° 0.1 mm 5 mps 680 mmHg 75%
    07:00 +21°C° 0.1 mm 5 mps 681 mmHg 75%
    08:00 +20°C° 0.1 mm 5 mps 681 mmHg 76%
    09:00 +20°C° 0.1 mm 5 mps 681 mmHg 77%
    10:00 +20°C° 0.1 mm 5 mps 681 mmHg 78%
    11:00 +20°C° 0.1 mm 5 mps 681 mmHg 79%
    12:00 +21°C° 0 mm 5 mps 680 mmHg 76%
    13:00 +22°C° 0 mm 5 mps 680 mmHg 73%
    14:00 +22°C° 0 mm 4 mps 680 mmHg 71%
    15:00 +23°C° 0 mm 4 mps 680 mmHg 70%
    16:00 +23°C° 0 mm 4 mps 679 mmHg 69%
    17:00 +25°C° 0 mm 4 mps 679 mmHg 68%
    18:00 +23°C° 0.1 mm 4 mps 679 mmHg 72%
    19:00 +22°C° 0.1 mm 3 mps 680 mmHg 76%
    20:00 +23°C° 0.1 mm 2 mps 680 mmHg 80%
    21:00 +21°C° 0 mm 3 mps 680 mmHg 80%
    22:00 +21°C° 0 mm 3 mps 680 mmHg 80%
    23:00 +21°C° 0 mm 4 mps 681 mmHg 80%

    26 February, Wednesday

    Time Temperature Precipitation Wind Pressure Humidity
    00:00 +21°C° 0 mm 3 mps 680 mmHg 81%
    01:00 +20°C° 0 mm 3 mps 680 mmHg 82%
    02:00 +20°C° 0 mm 3 mps 679 mmHg 83%
    03:00 +20°C° 0 mm 3 mps 679 mmHg 82%
    04:00 +20°C° 0 mm 3 mps 679 mmHg 81%
    05:00 +20°C° 0 mm 3 mps 679 mmHg 80%
    06:00 +20°C° 0.5 mm 3 mps 679 mmHg 83%
    07:00 +20°C° 0.5 mm 3 mps 680 mmHg 87%
    08:00 +19°C° 0.5 mm 3 mps 680 mmHg 90%
    09:00 +20°C° 0.2 mm 3 mps 680 mmHg 87%
    10:00 +21°C° 0.2 mm 3 mps 680 mmHg 84%
    11:00 +22°C° 0.2 mm 3 mps 681 mmHg 82%
    12:00 +24°C° 0.1 mm 3 mps 680 mmHg 79%
    13:00 +25°C° 0.1 mm 3 mps 680 mmHg 77%
    14:00 +25°C° 0.1 mm 2 mps 680 mmHg 75%
    15:00 +26°C° 0.2 mm 3 mps 679 mmHg 71%
    16:00 +27°C° 0.2 mm 3 mps 679 mmHg 68%
    17:00 +28°C° 0.2 mm 3 mps 678 mmHg 64%
    18:00 +26°C° 0.2 mm 3 mps 678 mmHg 70%
    19:00 +25°C° 0.2 mm 2 mps 679 mmHg 76%
    20:00 +24°C° 0.2 mm 2 mps 679 mmHg 82%
    21:00 +23°C° 0.9 mm 2 mps 679 mmHg 85%
    22:00 +23°C° 0.9 mm 2 mps 679 mmHg 88%
    23:00 +23°C° 0.9 mm 2 mps 679 mmHg 91%

    27 February, Thursday

    Time Temperature Precipitation Wind Pressure Humidity
    00:00 +21°C° 1.2 mm 2 mps 679 mmHg 92%
    01:00 +21°C° 1.2 mm 2 mps 679 mmHg 93%
    02:00 +22°C° 1.2 mm 1 mps 679 mmHg 94%
    03:00 +22°C° 0.9 mm 1 mps 679 mmHg 95%
    04:00 +22°C° 0.9 mm 1 mps 679 mmHg 95%
    05:00 +22°C° 0.9 mm 1 mps 679 mmHg 95%
    06:00 +21°C° 0 mm 2 mps 679 mmHg 93%
    07:00 +23°C° 0 mm 2 mps 679 mmHg 91%
    08:00 +23°C° 0 mm 2 mps 680 mmHg 89%
    09:00 +25°C° 0.6 mm 2 mps 680 mmHg 82%
    10:00 +26°C° 0.6 mm 2 mps 681 mmHg 76%
    11:00 +28°C° 0.6 mm 2 mps 681 mmHg 69%
    12:00 +28°C° 1.7 mm 2 mps 680 mmHg 67%
    13:00 +29°C° 1.7 mm 2 mps 680 mmHg 65%
    14:00 +30°C° 1.7 mm 2 mps 679 mmHg 62%
    15:00 +30°C° 0.6 mm 2 mps 679 mmHg 61%
    16:00 +30°C° 0.6 mm 2 mps 678 mmHg 60%
    17:00 +30°C° 0.6 mm 2 mps 678 mmHg 59%
    18:00 +29°C° 0.3 mm 2 mps 678 mmHg 64%
    19:00 +27°C° 0.3 mm 2 mps 678 mmHg 69%
    20:00 +26°C° 0.3 mm 2 mps 678 mmHg 73%
    21:00 +25°C° 0.6 mm 2 mps 679 mmHg 77%
    22:00 +25°C° 0.6 mm 2 mps 679 mmHg 80%
    23:00 +24°C° 0.6 mm 2 mps 679 mmHg 83%
    Show more